2023-039C (55975 NORAD) Tracking and Keplerian Element Data

This shows tracking and keplerian element data for the satellite.

Feedback or suggestion? Click here.




ElementValue
Catalog55975
Name2023-039C
Epoch Orbit683
Epoch Day126.48364294
Epoch Year2023
RAAN276.3848
Inclination97.4202
Eccentricity0.0012285
Argument of Perigee102.5619
Mean Anonmoly298.5392
Mean Motion15.1959866
Decay Rate7.054E-05
L11 55975U 23039C 23126.48364294 .00007054 00000+0 33380-3 0 9997
L22 55975 97.4202 276.3848 0012285 102.5619 298.5392 15.19598660 6832



Live tracking and technical data element details for 2023-039C (NORAD 55975). 2023-039C can be tracked NOW for your location showing map with azimuth and elevation plus other details from your city location.







IsCatalogInMostPopularTable: catalog: 55975, numindb: 6
Update: records affected: 1



GetName: 55975 2023-039C

Hit Count: updated at: Tue, 06 Jun 2023 03:25:40 GMT